Home   Weather   Stjørdal   Past weeks

Flag for Norway Past Weather in Stjørdal, Norway — Yesterday and Last 2 Weeks

Now
40 °F

Overcast.


Feels Like: 35 °F
Forecast: 34 / 40 °F
Wind: 6 mph from East

Location: Trondheim / Vaernes

Current Time: Jan 24, 2017 at 12:25:54 pm

Latest Report: Jan 24, 2017 at 11:00 am


Visibility: 31 mi

Pressure: 30.04 "Hg

Humidity: 78%

Dew Point: 33 °F

Location of StjørdalLocation

Past Weather in Stjørdal — Graph

°F

Stjørdal Temperature Yesterday

Maximum temperature yesterday: 43 °F (at 12:00 am)
Minimum temperature yesterday: 39 °F (at 4:00 am)
Average temperature yesterday: 40 °F

High & Low Weather Summary for the Past Weeks

 TemperatureHumidityPressure
High47 °F (Jan 18, 3:00 pm)99% (Jan 12, 5:00 am)30.30 "Hg (Jan 12, 5:00 am)
Low24 °F (Jan 13, 7:00 am)52% (Jan 11, 3:00 am)28.61 "Hg (Jan 11, 2:00 pm)
Average37 °F84%29.78 "Hg
* Reported Jan 9 10:00 am — Jan 24 10:00 am, Stjørdal, Weather by CustomWeather, © 2017

Note: Actual official high and low records may vary slightly from our data, if they occured in-between our weather recording intervals... More about our weather records

Advertising

Stjørdal Weather History for the Previous 24 Hours

Scroll right to see more
 ConditionsComfort  
Time TempWeatherWind HumidityBarometerVisibility
10:00 am
Tue, Jan 24
35 °FOvercast.1 mph97%30.05 "Hg28 mi
9:00 am35 °FOvercast.2 mph96%30.06 "Hg25 mi
8:00 amN/AOvercast.N/AN/AN/A25 mi
7:00 am36 °FRain showers. Overcast.2 mph97%30.06 "Hg13 mi
6:00 am36 °FDrizzle. Light fog.3 mph93%30.06 "Hg6 mi
5:00 amN/AOvercast.N/AN/AN/A19 mi
4:00 am36 °FOvercast.3 mph91%30.06 "Hg31 mi
3:00 am36 °FPassing clouds.5 mph85%30.05 "Hg31 mi
2:00 amN/AOvercast.N/AN/AN/A31 mi
1:00 am40 °FRain showers. Overcast.7 mph81%30.05 "Hg15 mi
12:00 am40 °FOvercast.6 mph80%30.05 "Hg31 mi
11:00 pm
Mon, Jan 23
40 °FOvercast.7 mph80%30.03 "Hg31 mi
10:00 pm39 °FOvercast.9 mph83%30.02 "Hg31 mi
9:00 pm40 °FOvercast.8 mph82%30.00 "Hg31 mi
8:00 pm39 °FOvercast.8 mph84%29.98 "Hg31 mi
7:00 pm39 °FOvercast.10 mph83%29.97 "Hg31 mi
6:00 pm40 °FOvercast.10 mph80%29.95 "Hg31 mi
5:00 pmN/AOvercast.N/AN/AN/A31 mi
4:00 pm39 °FOvercast.13 mph82%29.92 "Hg25 mi
3:00 pmN/AOvercast.N/AN/AN/A31 mi
2:00 pm40 °FScattered clouds.13 mph83%29.90 "Hg28 mi
1:00 pm40 °FRain showers. Overcast.10 mph86%29.89 "Hg12 mi
12:00 pm40 °FScattered clouds.14 mph82%29.87 "Hg17 mi
Weather by CustomWeather, © 2017

See weather overviewHow to use our weather pages